Regional Weather Roundup
Issued by NWS

Home | Current Version | Previous Version | Graphics & Text | Print | Product List | Glossary On
Versions: 1 2 3 4 5 6 7 8 9 10 11 12 13 14 15 16 17 18 19 20 21 22 23 24 25 26 27 28 29 30 31 32 33 34 35 36 37 38 39 40 41 42 43 44 45 46 47 48 49 50
000
ASUS43 KMPX 051801
RWRMN
WEATHER ROUNDUP FOR MINNESOTA
NATIONAL WEATHER SERVICE TWIN CITIES/CHANHASSEN MN
1200 PM CST MON DEC 05 2016


NOTE: "FAIR" INDICATES FEW OR NO CLOUDS BELOW 12,000 FEET WITH NO
SIGNIFICANT WEATHER AND/OR OBSTRUCTIONS TO VISIBILITY. N/A MEANS
CURRENT SKY AND/OR WEATHER CONDITIONS ARE NOT AVAILABLE.

MNZ060>063-068>070-051900-
   Twin Cities Metro

CITY           SKY/WX    TMP DP  RH WIND       PRES   REMARKS
TWIN CITIES    CLOUDY    37  31  78 SE14      29.70F
6HR MIN TEMP:  28; 6HR MAX TEMP:  37;

ST PAUL        CLOUDY    36  33  89 SE10      29.73F
CRYSTAL        CLOUDY    37  30  75 SE10      29.68F
BLAINE         CLOUDY    37  36  93 E16       29.69F
LAKEVILLE      CLOUDY    36  32  87 SE9       29.70F
EDEN PRAIRIE   CLOUDY    39  32  76 SE13      29.65F
6HR MIN TEMP:  27; 6HR MAX TEMP:  39; 6HR PCP: TRACE;

SOUTH ST PAUL  CLOUDY    36  32  87 SE6       29.73F
LAKE ELMO      FAIR      34  32  93 SE8       29.74F WCI  27
$$
MNZ001>005-007-008-013>017-022>024-027-028-051900-
   Northwest Minnesota

CITY           SKY/WX    TMP DP  RH WIND       PRES   REMARKS
BEMIDJI        CLOUDY    28  26  94 E9        29.69F WCI  19
HALLOCK        CLOUDY    30  27  86 E12       29.69F WCI  21
ROSEAU         PTSUNNY   30  25  80 E12       29.72S WCI  21
WARROAD        CLOUDY    30  27  86 E8        29.73S WCI  23
THIEF RVR FALL CLOUDY    28  26  92 E15       29.68F WCI  16
CROOKSTON      CLOUDY    30  28  93 E9        29.67F WCI  22
FOSSTON        CLOUDY    28  28 100 E8        29.66F WCI  20
DETROIT LAKES  MOSUNNY   32  28  86 E9        29.62F WCI  24
MOORHEAD       CLOUDY    34  27  75 E10       29.60F WCI  26
PARK RAPIDS    CLOUDY    29  24  82 E7        29.66F WCI  22
$$
MNZ006-009>011-018-025>026-051900-
   North Central Minnesota

CITY           SKY/WX    TMP DP  RH WIND       PRES   REMARKS
BAUDETTE       CLOUDY    30  25  81 NE8       29.73F WCI  22
FLAG ISLAND    CLOUDY    30  25  80 CALM      29.73F
INTL FALLS     CLOUDY    31  24  75 E3        29.74F
6HR MIN TEMP:  29; 6HR MAX TEMP:  32;

WASKISH        CLOUDY    30  27  86 E6        29.73F WCI  24
BIG FORK       CLOUDY    30  27  86 SE6       29.74F WCI  24
LONGVILLE      MOSUNNY   34  27  75 E5        29.71S WCI  30
GRAND RAPIDS   CLOUDY    33  27  78 SE8       29.75F WCI  26
CRANE LAKE     CLOUDY    28  27  93 CALM      29.80R
ORR            CLOUDY    28  25  86 CALM      29.74S
COOK           CLOUDY    28  25  86 CALM      29.76F
$$
MNZ012-019>021-037-051900-
   Northeast Minnesota

CITY           SKY/WX    TMP DP  RH WIND       PRES   REMARKS
DULUTH         MOSUNNY   33  28  81 SE7       29.76F WCI  27
6HR MIN TEMP:  30; 6HR MAX TEMP:  33;

ELY            CLOUDY    28  25  86 CALM      29.77F
HIBBING        SUNNY     28  24  85 SE5       29.75F WCI  23
EVELETH        CLOUDY    32  26  77 CALM      29.76F
DULUTH HARBOR  MOSUNNY   37  30  75 E3        29.82R
TWO HARBORS    SUNNY     37  30  75 CALM      29.76F
SILVER BAY       N/A     36  28  75 SW3       29.77F
GRAND MARAIS     N/A     35  29  78 W7        29.81S WCI  29
G MARAIS ARPRT CLOUDY    28  21  74 CALM      29.76S
$$
MNZ029>031-032-039>041-046>048-054>057-064-051900-
   West Central Minnesota

CITY           SKY/WX    TMP DP  RH WIND       PRES   REMARKS
FERGUS FALLS   MOSUNNY   34  28  80 E12G17    29.61F WCI  25
WHEATON        CLOUDY    34  32  93 E9        29.57F WCI  26
MORRIS         CLOUDY    36  32  87 SE14      29.55F
ALEXANDRIA     PTSUNNY   35  31  85 E14G23    29.60F WCI  26
ELBOW LAKE     FAIR      34  31  88 SE15      29.57F WCI  25
WADENA         MOSUNNY   28  28 100 E14       29.62F WCI  17
GLENWOOD       CLOUDY    34  32  93 E15       29.59F WCI  24
APPLETON       CLOUDY    36  32  87 SE9       29.55F
BENSON         CLOUDY    36  30  80 SE12G18   29.56F
ORTONVILLE     PTSUNNY   34  30  86 CALM      29.52F
MADISON        PTSUNNY   37  37 100 SE13      29.56R
WILLMAR        FAIR      36  34  93 E16       29.58F
$$
MNZ033>034-036-042>043-049>051-058-059-051900-
   Central Minnesota

CITY           SKY/WX    TMP DP  RH WIND       PRES   REMARKS
ST CLOUD       MOSUNNY   35  33  92 SE9       29.66F WCI  28
6HR MIN TEMP:  23; 6HR MAX TEMP:  35;

PAYNESVILLE    CLOUDY    36  34  94 SE13      29.62F
AITKIN         PTSUNNY   32  27  80 E8        29.70F WCI  25
PINE RIVER     CLOUDY    28  27  93 E8        29.74F WCI  20
BRAINERD       PTSUNNY   30  28  92 E8        29.70F WCI  22
STAPLES        SUNNY     30  28  93 E8        29.65F WCI  23
LONG PRAIRIE   FAIR      32  30  93 NE12      29.63S WCI  23
LITTLE FALLS   MOSUNNY   34  30  86 E9        29.65F WCI  26
LITCHFIELD     CLOUDY    37  34  87 SE10      29.63F
BUFFALO        PTSUNNY   36  32  86 E8        29.67F
MAPLE LAKE     CLOUDY    35  34  94 E7        29.67F WCI  30
$$
MNZ037-044-045-052-053-051900-
   East Central Minnesota

CITY           SKY/WX    TMP DP  RH WIND       PRES   REMARKS
PRINCETON      MOSUNNY   37  36  93 E12       29.69F
MORA           MOSUNNY   32  32 100 E3        29.73F FOG
CAMBRIDGE      PTSUNNY   36  28  75 E9        29.69F
RUSH CITY      CLOUDY    36  30  80 SE8       29.73S
MOOSE LAKE     CLOUDY    32  28  86 E3        29.75F
HINCKLEY       FAIR      32  32 100 E7        29.73F WCI  26
CLOQUET        CLOUDY    30  27  86 E5        29.77F WCI  25
MCGREGOR       PTSUNNY   32  30  93 E8        29.74F WCI  25
$$
MNZ071>073-080-081-089-090-097-098-051900-
   Southwest Minnesota

CITY           SKY/WX    TMP DP  RH WIND       PRES   REMARKS
MONTEVIDEO     CLOUDY    36  34  93 S10       29.58S
GRANITE FALLS  CLOUDY    38  33  82 SE15G23   29.60R
CANBY          MOSUNNY   37  33  87 SE10      29.53F
MARSHALL       MOSUNNY   37  32  82 SE8       29.56S
REDWOOD FALLS  CLOUDY    37  31  78 SE12      29.58F
OLIVIA         CLOUDY    36  32  87 SE14      29.58F
PIPESTONE      MOSUNNY   37  34  87 S14       29.52F
WINDOM         CLOUDY    39  32  75 SE18G25   29.57F
WORTHINGTON    CLOUDY    40  33  76 S18       29.54F
JACKSON        CLOUDY    39  32  75 S18         N/A
TRACY          CLOUDY    40  33  75 S9        29.55F
SLAYTON        CLOUDY    37  32  82 S20G26    29.55S
$$
MNZ065>067-074>077-082>085-091>093-051900-
   South Central Minnesota

CITY           SKY/WX    TMP DP  RH WIND       PRES   REMARKS
MANKATO        CLOUDY    38  32  79 SE16      29.67F
NEW ULM        CLOUDY    37  32  81 S24       29.61F
ST JAMES       MOSUNNY   37  34  87 SE18G25   29.63F
FAIRMONT       CLOUDY    40  34  79 S22       29.64F
GLENCOE        CLOUDY    38  35  88 CALM      29.65F
FARIBAULT      CLOUDY    37  34  87 SE14      29.71F
OWATONNA       CLOUDY    36  30  80 SE18G28   29.71F
WASECA         CLOUDY    36  32  87 SE18G26   29.70F
ALBERT LEA     MOSUNNY   39  37  93 S17       29.72F
$$
MNZ078>079-086>088-094>096-051900-
   Southeast Minnesota

CITY           SKY/WX    TMP DP  RH WIND       PRES   REMARKS
ROCHESTER      CLOUDY    33  32  96 S17       29.77F WCI  22
6HR MIN TEMP:  30; 6HR MAX TEMP:  33;

RED WING       CLOUDY    37  34  87 SE8       29.77R
STANTON        CLOUDY    38  32  78 S8G16     29.72F
DODGE CENTER   MOSUNNY   34  30  86 S17G23    29.74F WCI  23
WINONA         PTSUNNY   37  34  87 SE14      29.81F
AUSTIN         CLOUDY    34  32  93 S9        29.76F WCI  26
PRESTON        CLOUDY    32  31  96 S13       29.81F WCI  22
$$
ABBREVIATIONS USED IN REMARKS
   TC - TEMPERATURES IN CELSIUS
  WCI - WIND CHILL INDEX
   HX - HEAT INDEX
  VSB - VISIBILITY
$$




USA.gov is the U.S. government's official web portal to all federal, state and local government web resources and services.